Flag for Germany Past Weather in Schloss Holte-Stukenbrock, North Rhine-Westphalia, Germany — Yesterday and Last 2 Weeks

48 °F

Drizzle. Mostly cloudy.

Feels Like: 46 °F
Forecast: 44 / 51 °F
Wind: 6 mph from Southeast

Location: Paderborn / Lippstadt

Current Time: Oct 24, 2016 at 10:17:57 PM

Latest Report: Oct 24, 2016 at 9:50 PM

Visibility: 4 mi

Pressure: 29.95 "Hg

Humidity: 87%

Dew Point: 45 °F

Location of Schloss Holte-StukenbrockLocation

Past Weather in Schloss Holte-Stukenbrock — Graph


Schloss Holte-Stukenbrock Temperature Yesterday

Maximum temperature yesterday: 50 °F (at 2:50 PM)
Minimum temperature yesterday: 37 °F (at 6:50 AM)
Average temperature yesterday: 43 °F

High & Low Weather Summary for the Past Weeks

High66 °F (Oct 16, 2:50 PM)100% (Oct 21, 5:20 AM)30.27 "Hg (Oct 21, 5:20 AM)
Low34 °F (Oct 11, 5:20 AM)49% (Oct 16, 2:50 PM)29.68 "Hg (Oct 15, 1:50 AM)
Average47 °F82%30.01 "Hg
* Reported Oct 9 8:20 PM — Oct 24 8:50 PM, Schloss Holte-Stukenbrock, Weather by CustomWeather, © 2016

Note: Actual official high and low records may vary slightly from our data, if they occured in-between our weather recording intervals... More about our weather records


Schloss Holte-Stukenbrock Weather History for the Previous 24 Hours

Scroll right to see more
Time TempWeatherWind HumidityBarometerVisibility
8:50 PM
Mon, Oct 24
48 °FDrizzle. Fog.5 mph87%29.95 "Hg2 mi
8:20 PM48 °FPassing clouds.5 mph87%29.95 "Hg4 mi
7:50 PM48 °FMostly cloudy.6 mph87%29.95 "HgN/A
7:20 PM48 °FMostly cloudy.6 mph87%29.92 "HgN/A
6:50 PM48 °FMostly cloudy.6 mph87%29.92 "HgN/A
6:20 PM48 °FLight rain. Mostly cloudy.6 mph87%29.92 "Hg4 mi
5:50 PM48 °FLight rain. Fog.3 mph87%29.92 "Hg3 mi
5:20 PM48 °FLight rain. Cloudy.3 mph87%29.92 "Hg4 mi
4:50 PM48 °FLight rain. Cloudy.5 mph87%29.89 "HgN/A
4:20 PM48 °FLight rain. Partly sunny.3 mph87%29.89 "Hg4 mi
3:50 PM48 °FLight rain. Broken clouds.12 mph87%29.89 "Hg4 mi
3:20 PM48 °FLight rain. Broken clouds.7 mph87%29.89 "Hg4 mi
2:50 PM46 °FLight rain. Broken clouds.7 mph93%29.89 "Hg4 mi
2:20 PM46 °FLight rain. Broken clouds.8 mph87%29.89 "Hg4 mi
1:50 PM46 °FLight rain. Broken clouds.9 mph87%29.89 "Hg4 mi
1:20 PM46 °FLight rain. Partly sunny.9 mph87%29.92 "Hg4 mi
12:50 PM46 °FLight rain. Partly sunny.9 mph87%29.92 "Hg4 mi
12:20 PM46 °FPassing clouds.9 mph87%29.92 "Hg5 mi
11:50 AM46 °FPassing clouds.7 mph82%29.92 "Hg5 mi
11:20 AM46 °FClear.8 mph82%29.92 "Hg5 mi
10:50 AM46 °FClear.8 mph82%29.95 "Hg5 mi
10:20 AM45 °FClear.9 mph87%29.95 "Hg5 mi
9:50 AM45 °FClear.9 mph87%29.95 "Hg5 mi
9:20 AM45 °FClear.7 mph87%29.95 "Hg5 mi
8:50 AM45 °FClear.9 mph87%29.92 "Hg5 mi
8:20 AM45 °FClear.10 mph87%29.92 "Hg5 mi
7:50 AM45 °FClear.7 mph87%29.92 "Hg5 mi
7:20 AM45 °FClear.8 mph87%29.92 "Hg5 mi
6:50 AM45 °FClear.8 mph87%29.92 "Hg5 mi
6:20 AM45 °FClear.9 mph87%29.92 "Hg5 mi
5:50 AM45 °FClear.8 mph87%29.92 "Hg5 mi
5:20 AM45 °FClear.8 mph87%29.92 "Hg4 mi
4:50 AM45 °FClear.9 mph87%29.89 "Hg4 mi
4:20 AM45 °FClear.8 mph87%29.92 "Hg4 mi
3:50 AM45 °FClear.8 mph87%29.92 "Hg6 mi
3:20 AM45 °FClear.9 mph87%29.92 "Hg6 mi
2:50 AM45 °FClear.9 mph87%29.92 "Hg10 mi
2:20 AM45 °FClear.8 mph81%29.92 "Hg6 mi
1:50 AM45 °FClear.8 mph81%29.92 "Hg6 mi
1:20 AM45 °FClear.9 mph81%29.92 "Hg10 mi
12:50 AM43 °FClear.8 mph87%29.92 "Hg10 mi
12:20 AM43 °FClear.8 mph87%29.92 "Hg10 mi
11:50 PM
Sun, Oct 23
43 °FClear.8 mph87%29.92 "Hg10 mi
11:20 PM43 °FClear.6 mph87%29.92 "Hg10 mi
10:50 PM45 °FClear.5 mph81%29.92 "Hg10 mi
10:20 PM43 °FClear.5 mph87%29.92 "Hg10 mi
Weather by CustomWeather, © 2016

See weather overviewHow to use our weather pages